CW3643 Weather Reports


time (UTC)temp
C
wind
direction
speed
KPH
gust
KPH
rain 1hr
cm
rain 24hr
cm
rain mn
cm
humidity
%
barometer
mb
20260902230529 23 190 1.6 6.4 0.00 0.00 0.00 60 1019.5
20260902230017 23 190 3.2 6.4 0.00 0.00 0.00 60 1019.5
20260902225517 23 190 3.2 8.0 0.00 0.00 0.00 60 1019.4
20260902224529 23 190 4.8 11.3 0.00 0.00 0.00 60 1019.4
20260902224017 23 190 6.4 11.3 0.00 0.00 0.00 60 1019.4
20260902223521 23 190 8.0 11.3 0.00 0.00 0.00 60 1019.3
20260902223029 23 190 6.4 11.3 0.00 0.00 0.00 61 1019.3
20260902222530 23 190 8.0 12.9 0.00 0.00 0.00 61 1019.4
20260902222019 23 190 8.0 14.5 0.00 0.00 0.00 61 1019.4
20260902221521 23 190 6.4 14.5 0.00 0.00 0.00 61 1019.3
20260902221034 23 190 6.4 14.5 0.00 0.00 0.00 62 1019.3
20260902220523 23 190 8.0 14.5 0.00 0.00 0.00 62 1019.3
20260902220030 23 190 9.7 14.5 0.00 0.00 0.00 62 1019.3
20260902215517 23 190 9.7 16.1 0.00 0.00 0.00 62 1019.4
20260902215018 23 190 9.7 16.1 0.00 0.00 0.00 62 1019.4
20260902214531 23 190 9.7 16.1 0.00 0.00 0.00 63 1019.4
20260902214013 23 190 9.7 16.1 0.00 0.00 0.00 63 1019.4
20260902213025 23 190 8.0 14.5 0.00 0.00 0.00 63 1019.3
20260902212523 23 190 6.4 14.5 0.00 0.00 0.00 63 1019.4
20260902212051 23 190 6.4 14.5 0.00 0.00 0.00 63 1019.4
20260902211524 23 190 6.4 14.5 0.00 0.00 0.00 63 1019.4
20260902211025 23 190 6.4 17.7 0.00 0.00 0.00 64 1019.4
20260902210513 23 190 8.0 19.3 0.00 0.00 0.00 64 1019.4
20260902210022 23 190 8.0 19.3 0.00 0.00 0.00 64 1019.3
20260902205549 23 190 9.7 17.7 0.00 0.00 0.00 65 1019.3
20260902205035 23 190 8.0 17.7 0.00 0.00 0.00 65 1019.2
20260902204521 23 190 9.7 16.1 0.00 0.00 0.00 65 1019.2
20260902204029 23 190 8.0 20.9 0.00 0.00 0.00 65 1019.2
20260902203529 24 190 11.3 20.9 0.00 0.00 0.00 65 1019.1
20260902203019 24 190 11.3 19.3 0.00 0.00 0.00 65 1019.1
20260902202515 24 190 12.9 20.9 0.00 0.00 0.00 65 1019.1
20260902202023 24 190 9.7 20.9 0.00 0.00 0.00 65 1019.0
20260902201524 24 190 12.9 20.9 0.00 0.00 0.00 65 1018.9
20260902201022 24 190 14.5 20.9 0.00 0.00 0.00 65 1018.9
20260902200558 24 190 14.5 20.9 0.00 0.00 0.00 65 1018.8
20260902200018 25 190 14.5 20.9 0.00 0.00 0.00 65 1018.7
20260902195519 25 190 12.9 20.9 0.00 0.00 0.00 65 1018.7
20260902195025 25 190 12.9 0.0 0.00 0.00 0.00 65 1018.5
20260902194021 25 190 12.9 22.5 0.00 0.00 0.00 65 1018.6
20260902193528 25 190 14.5 20.9 0.00 0.00 0.00 65 1018.6
20260902193035 25 190 12.9 22.5 0.00 0.00 0.00 65 1018.6
20260902192516 25 190 14.5 22.5 0.00 0.00 0.00 65 1018.5
20260902192017 26 190 12.9 22.5 0.00 0.00 0.00 65 1018.5
20260902191525 26 190 14.5 22.5 0.00 0.00 0.00 65 1018.6
20260902191013 26 190 11.3 22.5 0.00 0.00 0.00 64 1018.6
20260902190514 26 190 14.5 22.5 0.00 0.00 0.00 64 1018.6
20260902190022 26 190 12.9 17.7 0.00 0.00 0.00 63 1018.6
20260902185523 27 190 11.3 17.7 0.00 0.00 0.00 62 1018.6
20260902185026 27 190 9.7 16.1 0.00 0.00 0.00 62 1018.6
20260902184534 27 190 9.7 19.3 0.00 0.00 0.00 61 1018.6
20260902184014 27 190 12.9 19.3 0.00 0.00 0.00 61 1018.6
20260902183522 27 279 9.7 22.5 0.00 0.00 0.00 60 1018.6
20260902183051 28 324 16.1 22.5 0.00 0.00 0.00 60 1018.6
20260902182530 28 283 11.3 19.3 0.00 0.00 0.00 59 1018.6
20260902182018 28 298 11.3 20.9 0.00 0.00 0.00 59 1018.6
20260902181518 28 326 11.3 20.9 0.00 0.00 0.00 59 1018.7
20260902181025 28 345 14.5 22.5 0.00 0.00 0.00 58 1018.6
20260902180514 28 346 14.5 22.5 0.00 0.00 0.00 58 1018.6
20260902180023 28 343 14.5 20.9 0.00 0.00 0.00 57 1018.7
20260902175524 28 322 14.5 19.3 0.00 0.00 0.00 57 1018.7
20260902175023 28 345 9.7 19.3 0.00 0.00 0.00 57 1018.7
20260902174521 28 337 11.3 20.9 0.00 0.00 0.00 57 1018.8
20260902174035 28 190 14.5 20.9 0.00 0.00 0.00 56 1018.8
20260902173524 29 321 12.9 17.7 0.00 0.00 0.00 56 1018.8
20260902173052 29 295 11.3 17.7 0.00 0.00 0.00 55 1018.9
20260902172512 30 330 9.7 16.1 0.00 0.00 0.00 55 1018.9
20260902172020 30 334 6.4 12.9 0.00 0.00 0.00 55 1018.9
20260902171614 30 314 6.4 12.9 0.00 0.00 0.00 55 1018.9
20260902171028 30 307 4.8 14.5 0.00 0.00 0.00 56 1018.9
20260902170516 29 320 6.4 16.1 0.00 0.00 0.00 56 1018.7
20260902170020 30 340 11.3 17.7 0.00 0.00 0.00 55 1018.9
20260902165521 30 349 9.7 16.1 0.00 0.00 0.00 55 1018.9
20260902165029 30 328 11.3 16.1 0.00 0.00 0.00 55 1018.9
20260902164528 30 353 3.2 16.1 0.00 0.00 0.00 55 1018.9
20260902164123 30 44 4.8 16.1 0.00 0.00 0.00 56 1018.8
20260902163518 30 286 11.3 17.7 0.00 0.00 0.00 56 1018.9
20260902162536 30 309 8.0 17.7 0.00 0.00 0.00 55 1018.8
20260902162016 30 320 9.7 17.7 0.00 0.00 0.00 55 1018.8
20260902161525 30 13 4.8 12.9 0.00 0.00 0.00 54 1018.8
20260902161031 30 346 3.2 9.7 0.00 0.00 0.00 51 1018.8
20260902160513 30 122 1.6 8.0 0.00 0.00 0.00 48 1019.0
20260902160021 31 153 1.6 8.0 0.00 0.00 0.00 48 1019.0
20260902155518 31 111 3.2 6.4 0.00 0.00 0.00 48 1018.9
20260902155033 30 116 1.6 6.4 0.00 0.00 0.00 49 1018.9
20260902154541 30 156 4.8 11.3 0.00 0.00 0.00 49 1019.0
20260902154022 30 143 6.4 11.3 0.00 0.00 0.00 48 1019.1
20260902153530 30 101 4.8 9.7 0.00 0.00 0.00 47 1019.1
20260902153019 30 105 3.2 8.0 0.00 0.00 0.00 47 1019.0
20260902152520 30 101 3.2 8.0 0.00 0.00 0.00 47 1019.1
20260902152029 30 106 4.8 8.0 0.00 0.00 0.00 47 1019.1
20260902151533 30 151 1.6 6.4 0.00 0.00 0.00 48 1019.1
20260902151033 30 153 3.2 8.0 0.00 0.00 0.00 48 1019.3
20260902150521 30 154 0.0 9.7 0.00 0.00 0.00 49 1019.4
20260902150022 30 160 4.8 11.3 0.00 0.00 0.00 49 1019.5
20260902145022 29 180 3.2 11.3 0.00 0.00 0.00 49 1019.6
20260902144529 29 155 6.4 12.9 0.00 0.00 0.00 48 1019.6
20260902144023 30 130 8.0 12.9 0.00 0.00 0.00 49 1019.7
20260902143551 29 130 1.6 9.7 0.00 0.00 0.00 49 1019.6
20260902143018 29 80 6.4 9.7 0.00 0.00 0.00 50 1019.6
20260902142518 29 172 3.2 9.7 0.00 0.00 0.00 52 1019.7
20260902142027 29 163 3.2 9.7 0.00 0.00 0.00 53 1019.7
20260902141514 28 147 8.0 9.7 0.00 0.00 0.00 53 1019.7
20260902141014 28 139 3.2 9.7 0.00 0.00 0.00 54 1019.7
20260902140033 28 130 3.2 11.3 0.00 0.00 0.00 56 1019.8
20260902135512 28 90 3.2 11.3 0.00 0.00 0.00 56 1019.8
20260902135044 28 84 6.4 8.0 0.00 0.00 0.00 58 1019.9
20260902134531 27 133 1.6 8.0 0.00 0.00 0.00 58 1019.9
20260902134012 27 103 3.2 8.0 0.00 0.00 0.00 60 1020.0
20260902133520 27 114 3.2 9.7 0.00 0.00 0.00 61 1020.1
20260902133027 27 108 4.8 9.7 0.00 0.00 0.00 60 1020.0
20260902132522 27 99 3.2 9.7 0.00 0.00 0.00 61 1020.0
20260902132030 27 132 6.4 9.7 0.00 0.00 0.00 61 1020.1
20260902131512 27 125 4.8 9.7 0.00 0.00 0.00 62 1020.0
20260902131039 27 97 6.4 9.7 0.00 0.00 0.00 62 1020.1
20260902130016 26 151 6.4 12.9 0.00 0.00 0.00 63 1020.2
20260902125516 26 111 8.0 12.9 0.00 0.00 0.00 63 1020.2
20260902125023 26 114 4.8 11.3 0.00 0.00 0.00 65 1020.1
20260902124029 26 97 1.6 8.0 0.00 0.00 0.00 66 1020.2
20260902123517 26 93 3.2 8.0 0.00 0.00 0.00 66 1020.4
20260902123043 25 103 1.6 6.4 0.00 0.00 0.00 67 1020.4
20260902122550 25 72 3.2 6.4 0.00 0.00 0.00 67 1020.5
20260902122035 25 108 1.6 11.3 0.00 0.00 0.00 68 1020.5
20260902121021 25 109 3.2 12.9 0.00 0.00 0.00 67 1020.6
20260902120530 25 89 6.4 12.9 0.00 0.00 0.00 67 1020.7
20260902120017 25 139 3.2 12.9 0.00 0.00 0.00 68 1020.7
20260902115524 25 97 6.4 12.9 0.00 0.00 0.00 68 1020.8
20260902115031 25 62 3.2 12.9 0.00 0.00 0.00 69 1020.8
20260902114027 24 115 6.4 9.7 0.00 0.00 0.00 69 1021.0
20260902113515 24 274 3.2 8.0 0.00 0.00 0.00 70 1021.0
20260902113043 24 157 3.2 9.7 0.00 0.00 0.00 70 1021.0
20260902112531 23 136 4.8 9.7 0.00 0.00 0.00 71 1021.0
20260902112012 23 111 1.6 9.7 0.00 0.00 0.00 71 1021.1
20260902111519 23 145 4.8 9.7 0.00 0.00 0.00 71 1021.1
20260902110536 23 134 3.2 11.3 0.00 0.00 0.00 72 1021.1
20260902110018 23 95 4.8 11.3 0.00 0.00 0.00 72 1021.1
20260902105517 23 122 3.2 8.0 0.00 0.00 0.00 73 1021.1
20260902105024 23 64 3.2 8.0 0.00 0.00 0.00 73 1021.0
20260902104512 22 95 3.2 9.7 0.00 0.00 0.00 74 1021.0
20260902104036 22 99 4.8 9.7 0.00 0.00 0.00 74 1021.0
20260902103515 22 108 4.8 8.0 0.00 0.00 0.00 75 1021.0
20260902103023 22 111 4.8 6.4 0.00 0.00 0.00 75 1021.1
20260902102525 22 94 3.2 8.0 0.00 0.00 0.00 76 1021.1
20260902102013 22 109 3.2 8.0 0.00 0.00 0.00 76 1021.1
20260902101520 21 96 3.2 9.7 0.00 0.00 0.00 77 1021.2
20260902101027 21 157 4.8 9.7 0.00 0.00 0.00 77 1021.2
20260902100516 21 190 4.8 9.7 0.00 0.00 0.00 78 1021.1
20260902100024 21 190 4.8 9.7 0.00 0.00 0.00 78 1021.1
20260902095515 21 190 1.6 9.7 0.00 0.00 0.00 79 1021.1
20260902095051 21 190 3.2 11.3 0.00 0.00 0.00 79 1021.1
20260902094530 21 357 1.6 11.3 0.00 0.00 0.00 79 1020.9
20260902094017 21 190 3.2 9.7 0.00 0.00 0.00 78 1020.9
20260902093528 21 190 3.2 9.7 0.00 0.00 0.00 78 1020.9
20260902093023 21 342 3.2 12.9 0.00 0.00 0.00 78 1020.9
20260902092039 21 119 4.8 8.0 0.00 0.00 0.00 78 1020.8
20260902091641 21 71 3.2 11.3 0.00 0.00 0.00 78 1020.8
20260902091035 21 108 4.8 11.3 0.00 0.00 0.00 78 1020.7
20260902090556 21 45 4.8 9.7 0.00 0.00 0.00 78 1020.7
20260902090017 21 99 3.2 9.7 0.00 0.00 0.00 78 1020.6
20260902085620 21 39 4.8 9.7 0.00 0.00 0.00 77 1020.6
20260902085023 21 68 1.6 11.3 0.00 0.00 0.00 79 1020.5
20260902084537 20 353 4.8 12.9 0.00 0.00 0.00 79 1020.6
20260902084023 20 333 6.4 14.5 0.00 0.00 0.00 80 1020.6
20260902083532 20 315 8.0 16.1 0.00 0.00 0.00 80 1020.6
20260902083012 20 57 3.2 14.5 0.00 0.00 0.00 81 1020.4
20260902082520 20 331 4.8 14.5 0.00 0.00 0.00 81 1020.4
20260902082107 20 303 4.8 14.5 0.00 0.00 0.00 81 1020.4
20260902081526 19 22 6.4 12.9 0.00 0.00 0.00 82 1020.4
20260902081026 19 323 4.8 12.9 0.00 0.00 0.00 82 1020.4
20260902080515 19 35 4.8 9.7 0.00 0.00 0.00 82 1020.4
20260902080045 18 342 6.4 12.9 0.00 0.00 0.00 82 1020.4
20260902075014 18 328 526.3 526.3 0.00 0.00 0.00 83 1020.4
20260902074548 18 345 6.4 12.9 0.00 0.00 0.00 83 1020.4
20260902074020 18 313 4.8 11.3 0.00 0.00 0.00 83 1020.5
20260902073514 18 190 6.4 11.3 0.00 0.00 0.00 83 1020.4
20260902073022 18 332 6.4 11.3 0.00 0.00 0.00 83 1020.4
20260902072523 18 349 4.8 9.7 0.00 0.00 0.00 83 1020.4
20260902072031 18 334 4.8 9.7 0.00 0.00 0.00 83 1020.3
20260902071512 18 190 4.8 9.7 0.00 0.00 0.00 83 1020.3
20260902071042 18 190 4.8 9.7 0.00 0.00 0.00 84 1020.3
20260902070529 17 190 3.2 8.0 0.00 0.00 0.00 84 1020.2
20260902070018 17 190 4.8 6.4 0.00 0.00 0.00 83 1020.1
20260902065525 17 190 1.6 6.4 0.00 0.00 0.00 84 1020.0
20260902065025 17 334 0.0 3.2 0.00 0.00 0.00 84 1019.9
20260902064513 17 190 1.6 3.2 0.00 0.00 0.00 84 1020.0
20260902064013 17 332 526.3 4.8 0.00 0.00 0.00 84 1019.9
20260902063521 17 0.0 0.0 0.00 0.00 0.00 84 1019.9
20260902063031 17 0.0 0.0 0.00 0.00 0.00 84 1019.8
20260902062550 17 0.0 0.0 0.00 0.00 0.00 84 1019.7
20260902062033 17 0.0 0.0 0.00 0.00 0.00 84 1019.7
20260902061522 17 0.0 0.0 0.00 0.00 0.00 84 1019.6
20260902061021 17 0.0 0.0 0.00 0.00 0.00 84 1019.6
20260902060557 17 0.0 0.0 0.00 0.00 0.00 84 1019.5
20260902060017 17 0.0 0.0 0.00 0.00 0.00 84 1019.6
20260902055526 17 0.0 0.0 0.00 0.00 0.00 84 1019.5
20260902055034 17 0.0 0.0 0.00 0.00 0.00 84 1019.4
20260902054513 17 0.0 0.0 0.00 0.00 0.00 84 1019.4
20260902054020 17 0.0 0.0 0.00 0.00 0.00 84 1019.4
20260902053525 17 0.0 0.0 0.00 0.00 0.00 84 1019.4
20260902052521 17 0.0 0.0 0.00 0.00 0.00 84 1019.3
20260902052022 17 0.0 0.0 0.00 0.00 0.00 84 1019.3
20260902051558 17 0.0 0.0 0.00 0.00 0.00 84 1019.1
20260902051023 17 0.0 0.0 0.00 0.00 0.00 84 1019.0
20260902050526 17 0.0 0.0 0.00 0.00 0.00 84 1019.0
20260902050014 17 0.0 0.0 0.00 0.00 0.00 84 1019.0
20260902045529 17 0.0 0.0 0.00 0.00 0.00 84 1019.0
20260902045035 17 0.0 0.0 0.00 0.00 0.00 84 1019.0
20260902044515 17 0.0 0.0 0.00 0.00 0.00 84 1018.9
20260902044042 17 0.0 0.0 0.00 0.00 0.00 84 1019.0
20260902043548 17 0.0 0.0 0.00 0.00 0.00 84 1019.1
20260902043015 17 0.0 0.0 0.00 0.00 0.00 84 1019.1
20260902042552 17 0.0 0.0 0.00 0.00 0.00 84 1019.1
20260902042018 17 0.0 0.0 0.00 0.00 0.00 84 1019.2
20260902041520 17 0.0 0.0 0.00 0.00 0.00 84 1019.2
20260902041054 17 0.0 0.0 0.00 0.00 0.00 84 1019.1
20260902040514 17 340 3.2 11.3 0.00 0.00 0.00 84 1019.3
20260902040042 17 340 3.2 11.3 0.00 0.00 0.00 84 1019.4
20260902035537 17 340 4.8 11.3 0.00 0.00 0.00 84 1019.3
20260902035018 17 8 4.8 14.5 0.00 0.00 0.00 84 1019.3
20260902034014 17 336 6.4 19.3 0.00 0.00 0.00 84 1019.3
20260902033521 17 3 4.8 19.3 0.00 0.00 0.00 84 1019.4
20260902033028 17 85 4.8 0.0 0.00 0.00 0.00 84 1019.4
20260902032512 17 328 6.4 11.3 0.00 0.00 0.00 84 1019.4
20260902032012 17 15 4.8 11.3 0.00 0.00 0.00 84 1019.4
20260902031519 17 13 4.8 11.3 0.00 0.00 0.00 83 1019.4
20260902031026 17 3 4.8 9.7 0.00 0.00 0.00 83 1019.5
20260902030515 17 329 1.6 12.9 0.00 0.00 0.00 83 1019.6
20260902025530 17 324 4.8 9.7 0.00 0.00 0.00 83 1019.6
20260902025036 17 3 3.2 9.7 0.00 0.00 0.00 83 1019.7
20260902023527 17 296 8.0 12.9 0.00 0.00 0.00 83 1019.6
20260902023114 17 336 6.4 12.9 0.00 0.00 0.00 83 1019.8
20260902022526 18 333 4.8 9.7 0.00 0.00 0.00 83 1019.8
20260902022013 18 12 1.6 9.7 0.00 0.00 0.00 83 1019.8
20260902021521 18 358 6.4 9.7 0.00 0.00 0.00 83 1019.9
20260902020533 18 14 3.2 12.9 0.00 0.00 0.00 83 1019.9
20260902020014 18 331 4.8 12.9 0.00 0.00 0.00 82 1019.9
20260902015542 18 12 1.6 11.3 0.00 0.00 0.00 82 1019.9
20260902015022 18 49 3.2 12.9 0.00 0.00 0.00 82 1020.0
20260902014531 18 4 8.0 12.9 0.00 0.00 0.00 82 1020.0
20260902014019 18 49 3.2 11.3 0.00 0.00 0.00 82 1020.1
20260902013546 18 1 3.2 11.3 0.00 0.00 0.00 82 1020.1
20260902013017 18 56 4.8 12.9 0.00 0.00 0.00 82 1020.2
20260902012518 18 47 8.0 12.9 0.00 0.00 0.00 82 1020.2
20260902012023 18 325 4.8 20.9 0.00 0.00 0.00 82 1020.2
20260902011530 18 18 8.0 22.5 0.00 0.00 0.00 82 1020.1
20260902011037 18 348 9.7 24.1 0.00 0.00 0.00 81 1020.0
20260902010613 18 3 11.3 24.1 0.00 0.00 0.00 81 1020.1
20260902010036 18 10 12.9 24.1 0.00 0.00 0.00 81 1020.1
20260902005537 18 326 14.5 24.1 0.00 0.00 0.00 81 1020.1
20260902005013 18 330 11.3 24.1 0.00 0.00 0.00 81 1020.1
20260902004518 18 288 11.3 27.4 0.00 0.00 0.00 81 1020.1
20260902004026 18 330 16.1 30.6 0.00 0.00 0.00 82 1020.1
20260902003014 18 4 16.1 30.6 0.00 0.00 0.00 82 1020.1
20260902002522 18 316 20.9 30.6 0.00 0.00 0.00 82 1020.1
20260902002025 18 342 16.1 30.6 0.00 0.00 0.00 82 1020.0
20260902001518 18 359 17.7 30.6 0.00 0.00 0.00 82 1020.0
20260902001025 18 17 14.5 0.0 0.00 0.00 0.00 82 1019.9
20260902000537 18 5 16.1 24.1 0.00 0.00 0.00 82 1020.0
20260902000017 18 307 14.5 25.7 0.00 0.00 0.00 82 1020.0
20260901235518 18 355 14.5 27.4 0.00 0.00 0.00 82 1019.9
20260901235025 18 341 16.1 27.4 0.00 0.00 0.00 82 1020.0
20260901234513 18 266 17.7 32.2 0.00 0.00 0.00 82 1020.1
20260901234013 18 24 16.1 32.2 0.00 0.00 0.00 82 1020.1
20260901233512 18 8 16.1 27.4 0.00 0.00 0.00 82 1020.1
20260901233022 18 335 12.9 29.0 0.00 0.00 0.00 81 1020.2
20260901232543 18 318 14.5 29.0 0.00 0.00 0.00 82 1020.2
20260901232030 18 357 19.3 27.4 0.00 0.00 0.00 82 1020.2
20260901231538 18 332 12.9 25.7 0.00 0.00 0.00 82 1020.2
20260901231018 18 10 16.1 25.7 0.00 0.00 0.00 82 1020.3